Time,TemperatureF,DewpointF,PressureIn,WindDirection,WindDirectionDegrees,WindSpeedMPH,WindSpeedGustMPH,Humidity,HourlyPrecipIn,Conditions,Clouds,dailyrainin,SoftwareType,DateUTC
2013-12-10 00:00:00,35.0,35.0,29.85,West,260,18.0,20.0,100,-99.99,,,-99.99,,2013-12-10 05:00:00,
2013-12-10 00:42:00,35.0,35.0,29.85,West,260,18.0,20.0,100,-99.99,,,-99.99,,2013-12-10 05:42:00,
2013-12-10 00:52:00,35.0,35.0,29.85,West,260,18.0,20.0,100,-99.99,,,-99.99,,2013-12-10 05:52:00,
2013-12-10 01:00:00,35.0,35.0,29.86,WSW,240,21.0,23.0,100,-99.99,,,-99.99,,2013-12-10 06:00:00,
2013-12-10 01:42:00,35.0,35.0,29.86,WSW,240,21.0,23.0,100,-99.99,,,-99.99,,2013-12-10 06:42:00,
2013-12-10 01:52:00,35.0,35.0,29.86,WSW,240,21.0,23.0,100,-99.99,,,-99.99,,2013-12-10 06:52:00,
2013-12-10 02:00:00,36.0,36.0,29.86,WSW,240,18.0,21.0,100,-99.99,,,-99.99,,2013-12-10 07:00:00,
2013-12-10 02:42:00,36.0,36.0,29.86,WSW,240,18.0,21.0,100,-99.99,,,-99.99,,2013-12-10 07:42:00,
2013-12-10 02:52:00,36.0,36.0,29.86,WSW,240,18.0,21.0,100,-99.99,,,-99.99,,2013-12-10 07:52:00,
2013-12-10 03:00:00,37.0,37.0,29.85,WSW,240,16.0,17.0,100,-99.99,,,-99.99,,2013-12-10 08:00:00,
2013-12-10 03:42:00,37.0,37.0,29.85,WSW,240,16.0,17.0,100,-99.99,,,-99.99,,2013-12-10 08:42:00,
2013-12-10 03:52:00,37.0,37.0,29.85,WSW,240,16.0,17.0,100,-99.99,,,-99.99,,2013-12-10 08:52:00,
2013-12-10 04:00:00,37.0,37.0,29.84,WSW,250,15.0,16.0,99,-99.99,,,-99.99,,2013-12-10 09:00:00,
2013-12-10 04:44:00,37.0,37.0,29.84,WSW,250,15.0,16.0,99,-99.99,,,-99.99,,2013-12-10 09:44:00,
2013-12-10 04:54:00,37.0,37.0,29.84,WSW,250,15.0,16.0,99,-99.99,,,-99.99,,2013-12-10 09:54:00,
2013-12-10 05:00:00,37.0,37.0,29.86,WSW,240,18.0,20.0,98,-99.99,,,-99.99,,2013-12-10 10:00:00,
2013-12-10 05:42:00,37.0,37.0,29.86,WSW,240,18.0,20.0,98,-99.99,,,-99.99,,2013-12-10 10:42:00,
2013-12-10 05:52:00,37.0,37.0,29.86,WSW,240,18.0,20.0,98,-99.99,,,-99.99,,2013-12-10 10:52:00,
2013-12-10 06:00:00,37.0,36.0,29.88,WSW,250,17.0,21.0,93,-99.99,,,-99.99,,2013-12-10 11:00:00,
2013-12-10 06:42:00,37.0,36.0,29.88,WSW,250,17.0,21.0,93,-99.99,,,-99.99,,2013-12-10 11:42:00,
2013-12-10 06:53:00,37.0,36.0,29.88,WSW,250,17.0,21.0,93,-99.99,,,-99.99,,2013-12-10 11:53:00,
2013-12-10 07:00:00,37.0,31.0,29.83,WSW,250,16.0,17.0,77,-99.99,,,-99.99,,2013-12-10 12:00:00,
2013-12-10 07:42:00,37.0,31.0,29.83,WSW,250,16.0,17.0,77,-99.99,,,-99.99,,2013-12-10 12:42:00,
2013-12-10 07:52:00,37.0,31.0,29.83,WSW,250,16.0,17.0,77,-99.99,,,-99.99,,2013-12-10 12:52:00,
2013-12-10 08:00:00,38.0,29.0,29.89,WSW,240,23.0,24.0,70,-99.99,,,-99.99,,2013-12-10 13:00:00,
2013-12-10 08:42:00,38.0,29.0,29.89,WSW,240,23.0,24.0,70,-99.99,,,-99.99,,2013-12-10 13:42:00,
2013-12-10 08:52:00,38.0,29.0,29.89,WSW,240,23.0,24.0,70,-99.99,,,-99.99,,2013-12-10 13:52:00,
2013-12-10 09:00:00,37.0,29.0,29.89,WSW,240,18.0,21.0,70,-99.99,,,-99.99,,2013-12-10 14:00:00,
2013-12-10 09:42:00,37.0,29.0,29.89,WSW,240,18.0,21.0,70,-99.99,,,-99.99,,2013-12-10 14:42:00,
2013-12-10 09:52:00,37.0,29.0,29.89,WSW,240,18.0,21.0,70,-99.99,,,-99.99,,2013-12-10 14:52:00,
2013-12-10 10:00:00,37.0,28.0,29.85,SW,230,18.0,21.0,67,-99.99,,,-99.99,,2013-12-10 15:00:00,
2013-12-10 10:43:00,37.0,28.0,29.85,SW,230,18.0,21.0,67,-99.99,,,-99.99,,2013-12-10 15:43:00,
2013-12-10 10:53:00,37.0,28.0,29.85,SW,230,18.0,21.0,67,-99.99,,,-99.99,,2013-12-10 15:53:00,
2013-12-10 11:00:00,37.0,26.0,29.83,West,260,14.0,17.0,64,-99.99,,,-99.99,,2013-12-10 16:00:00,
2013-12-10 11:43:00,37.0,26.0,29.83,West,260,14.0,17.0,64,-99.99,,,-99.99,,2013-12-10 16:43:00,
2013-12-10 11:52:00,37.0,26.0,29.83,West,260,14.0,17.0,64,-99.99,,,-99.99,,2013-12-10 16:52:00,
2013-12-10 13:00:00,35.0,30.0,29.76,SW,220,18.0,20.0,83,-99.99,,,-99.99,,2013-12-10 18:00:00,
2013-12-10 13:42:00,35.0,30.0,29.76,SW,220,18.0,20.0,83,-99.99,,,-99.99,,2013-12-10 18:42:00,
2013-12-10 13:52:00,35.0,30.0,29.76,SW,220,18.0,20.0,83,-99.99,,,-99.99,,2013-12-10 18:52:00,
2013-12-10 14:00:00,34.0,31.0,29.75,West,260,17.0,21.0,90,-99.99,,,-99.99,,2013-12-10 19:00:00,
2013-12-10 14:42:00,34.0,31.0,29.75,West,260,17.0,21.0,90,-99.99,,,-99.99,,2013-12-10 19:42:00,
2013-12-10 14:52:00,34.0,31.0,29.75,West,260,17.0,21.0,90,-99.99,,,-99.99,,2013-12-10 19:52:00,
2013-12-10 15:00:00,32.0,27.0,29.75,West,280,25.0,29.0,81,-99.99,,,-99.99,,2013-12-10 20:00:00,
2013-12-10 15:42:00,32.0,27.0,29.75,West,280,25.0,29.0,81,-99.99,,,-99.99,,2013-12-10 20:42:00,
2013-12-10 15:52:00,32.0,27.0,29.75,West,280,25.0,29.0,81,-99.99,,,-99.99,,2013-12-10 20:52:00,
2013-12-10 16:00:00,31.0,28.0,29.77,West,270,24.0,25.0,88,-99.99,,,-99.99,,2013-12-10 21:00:00,
2013-12-10 16:43:00,31.0,28.0,29.77,West,270,24.0,25.0,88,-99.99,,,-99.99,,2013-12-10 21:43:00,
2013-12-10 16:54:00,31.0,28.0,29.77,West,270,24.0,25.0,88,-99.99,,,-99.99,,2013-12-10 21:54:00,
2013-12-10 17:00:00,31.0,24.0,29.78,West,260,25.0,26.0,74,-99.99,,,-99.99,,2013-12-10 22:00:00,
2013-12-10 17:42:00,31.0,24.0,29.78,West,260,25.0,26.0,74,-99.99,,,-99.99,,2013-12-10 22:42:00,
2013-12-10 17:52:00,31.0,24.0,29.78,West,260,25.0,26.0,74,-99.99,,,-99.99,,2013-12-10 22:52:00,
2013-12-10 18:00:00,31.0,23.0,29.79,West,260,24.0,28.0,72,-99.99,,,-99.99,,2013-12-10 23:00:00,
2013-12-10 18:42:00,31.0,23.0,29.79,West,260,24.0,28.0,72,-99.99,,,-99.99,,2013-12-10 23:42:00,
2013-12-10 18:53:00,31.0,23.0,29.79,West,260,24.0,28.0,72,-99.99,,,-99.99,,2013-12-10 23:53:00,
2013-12-10 19:00:00,31.0,22.0,29.81,West,270,30.0,33.0,67,-99.99,,,-99.99,,2013-12-11 00:00:00,
2013-12-10 19:42:00,31.0,22.0,29.81,West,270,30.0,33.0,67,-99.99,,,-99.99,,2013-12-11 00:42:00,
2013-12-10 19:52:00,31.0,22.0,29.81,West,270,30.0,33.0,67,-99.99,,,-99.99,,2013-12-11 00:52:00,
2013-12-10 20:00:00,30.0,21.0,29.82,West,270,29.0,32.0,68,-99.99,,,-99.99,,2013-12-11 01:00:00,
2013-12-10 20:42:00,30.0,21.0,29.82,West,270,29.0,32.0,68,-99.99,,,-99.99,,2013-12-11 01:42:00,
2013-12-10 20:52:00,30.0,21.0,29.82,West,270,29.0,32.0,68,-99.99,,,-99.99,,2013-12-11 01:52:00,
2013-12-10 21:00:00,30.0,20.0,29.83,West,270,28.0,32.0,67,-99.99,,,-99.99,,2013-12-11 02:00:00,
2013-12-10 21:42:00,30.0,20.0,29.83,West,270,28.0,32.0,67,-99.99,,,-99.99,,2013-12-11 02:42:00,
2013-12-10 21:52:00,30.0,20.0,29.83,West,270,28.0,32.0,67,-99.99,,,-99.99,,2013-12-11 02:52:00,
2013-12-10 22:00:00,29.0,19.0,29.87,West,270,28.0,31.0,64,-99.99,,,-99.99,,2013-12-11 03:00:00,
2013-12-10 22:43:00,29.0,19.0,29.87,West,270,28.0,31.0,64,-99.99,,,-99.99,,2013-12-11 03:43:00,
2013-12-10 22:54:00,29.0,19.0,29.87,West,270,28.0,31.0,64,-99.99,,,-99.99,,2013-12-11 03:54:00,
2013-12-10 23:00:00,28.0,15.0,29.91,West,270,26.0,31.0,59,-99.99,,,-99.99,,2013-12-11 04:00:00,
2013-12-10 23:42:00,28.0,15.0,29.91,West,270,26.0,31.0,59,-99.99,,,-99.99,,2013-12-11 04:42:00,
2013-12-10 23:52:00,28.0,15.0,29.91,West,270,26.0,31.0,59,-99.99,,,-99.99,,2013-12-11 04:52:00,